Find Starlink 38060

NORAD ID: 69716 Int'l Des: 2026-147 Owner: SPXS Country: US Constellation: starlink operational
LEOCIRCULARRETROGRADE

当前视图

正在加载3D地球...

About Starlink 38060

Starlink 38060 (NORAD 69716) is a starlink constellation satellite (v2 mini) launched Jun 28, 2026 by SPXS of US. It operates in LEO, CIRCULAR, RETROGRADE orbit with a mass of 575.00 kg.

即将过境

Passes for default location (London). Set your location on the main map for personalized predictions.

高度历史

Loading altitude history...

两行轨道根数

1 69716U 26147N 26235.56907624 .00015528 00000-0 48220-3 0 9996
2 69716 97.2853 272.3373 0001826 74.2423 285.9021 15.33452801 9953
Epoch: Aug 23, 2026 • Age: 11 hours

当前状态

高度 488.8 km
远地点 / 近地点 N/A
速度 7.62 km/s
星下点 -58.09°S, 53.22°W
发射日期 Jun 28, 2026
运行时间 0.1 years
类型 internet

技术详情

分类 Payload
质量 575.00 kg
干质量 530.00 kg
总质量 575.00 kg
长度 0.30 m
直径 4.10 m
跨度 29.00 m
形状 Box + pan
制造商 SPXS
平台类型 Starlink V2MO
阶段状态 In Orbit
所有者/国家 SPXS/US

Most Searched